Location: Habighorst
(52.7089°N, 10.2278°E)
Time: 07:19:36
(UTC+00:00)

Cosmos 1844 - Pass Details

Date: 13 January 2026
Orbit: 823 x 865 km, 70.9° (Epoch: 18 February)

Event Time Altitude Azimuth Distance (km) Brightness Sun altitude
Exits shadow 04:25:49 43° 348° (NNW) 1,154 4.2 -26.2°
Drops below altitude 10° 04:30:03 10° 26° (NNE) 2,437 6.3 -25.6°
Sets 04:32:34 0° 31° (NNE) 3,371 7.2 -25.2°
